ZHONGXING-22A

Last updated on May 31, 2018, 12:19 a.m. UTC

1 29398U 06038A   18150.09391826 -.00000179  00000-0  00000-0 0  9999
2 29398   6.3658  55.8393 0004540 336.5397 231.3908  1.00103493 42950
UTC
Height (km)
Latitude
Longitude
Inclination
Orbital Period
UTC large
Height (km)
Speed (km/s)
/
Latitude / Longitude
Inclination (degrees)
Orbital Period (minutes)
Azimuth
Elevation
Range (km)
Doppler Factor
iOS Compass Heading
iOS Angle

Next 30 passes for location: Hong Kong

Rise time Rise Azimuth (degrees) Set time Set Azimuth (degrees) Duration Max altitude (degrees)

No matching passes for this satellites